| time (UTC) | temp C | wind direction | speed KPH | gust KPH | rain 1hr cm | rain 24hr cm | rain mn cm | humidity % | barometer mb |
| 20260504222034 | 19 | 79 | 0.0 | 0.0 | 0.03 | 0.05 | 0.05 | 96 | 1014.3 |
| 20260504221531 | 19 | 79 | 0.0 | 0.0 | 0.00 | 0.03 | 0.05 | 96 | 1014.2 |
| 20260504221001 | 19 | 4 | 0.0 | 0.0 | 0.00 | 0.03 | 0.03 | 96 | 1014.1 |
| 20260504220457 | 19 | 4 | 0.0 | 3.2 | 0.00 | 0.03 | 0.03 | 96 | 1014.1 |
| 20260504220203 | 19 | 4 | 1.6 | 3.2 | 0.00 | 0.03 | 0.03 | 95 | 1013.9 |
| 20260504215404 | 19 | 214 | 1.6 | 4.8 | 0.00 | 0.03 | 0.03 | 95 | 1014.0 |
| 20260504214834 | 19 | 302 | 3.2 | 6.4 | 0.00 | 0.03 | 0.03 | 95 | 1014.1 |
| 20260504214604 | 19 | 194 | 1.6 | 6.4 | 0.00 | 0.03 | 0.03 | 95 | 1014.0 |
| 20260504213815 | 19 | 24 | 1.6 | 3.2 | 0.00 | 0.03 | 0.03 | 95 | 1014.0 |
| 20260504213318 | 19 | 266 | 1.6 | 3.2 | 0.00 | 0.03 | 0.03 | 95 | 1014.0 |
| 20260504212749 | 19 | 335 | 0.0 | 3.2 | 0.00 | 0.03 | 0.03 | 94 | 1014.0 |
| 20260504212520 | 19 | 212 | 0.0 | 3.2 | 0.00 | 0.03 | 0.03 | 94 | 1014.0 |
| 20260504211718 | 19 | 146 | 1.6 | 4.8 | 0.00 | 0.03 | 0.03 | 94 | 1013.9 |
| 20260504211428 | 19 | 146 | 1.6 | 4.8 | 0.00 | 0.03 | 0.03 | 94 | 1013.9 |
| 20260504210622 | 19 | 134 | 1.6 | 4.8 | 0.00 | 0.03 | 0.03 | 94 | 1013.9 |
| 20260504210347 | 20 | 261 | 1.6 | 4.8 | 0.00 | 0.03 | 0.03 | 94 | 1013.6 |
| 20260504205615 | 20 | 291 | 0.0 | 4.8 | 0.00 | 0.03 | 0.03 | 93 | 1013.6 |
| 20260504205112 | 20 | 118 | 0.0 | 4.8 | 0.00 | 0.03 | 0.03 | 93 | 1013.6 |
| 20260504204557 | 20 | 118 | 1.6 | 6.4 | 0.00 | 0.03 | 0.03 | 93 | 1013.6 |
| 20260504204324 | 20 | 118 | 1.6 | 6.4 | 0.00 | 0.03 | 0.03 | 93 | 1013.6 |
| 20260504203822 | 20 | 347 | 0.0 | 3.2 | 0.00 | 0.03 | 0.03 | 93 | 1013.4 |
| 20260504203048 | 20 | 299 | 0.0 | 3.2 | 0.00 | 0.03 | 0.03 | 93 | 1013.3 |
| 20260504202544 | 20 | 290 | 1.6 | 3.2 | 0.00 | 0.03 | 0.03 | 93 | 1013.6 |
| 20260504202012 | 20 | 231 | 1.6 | 3.2 | 0.00 | 0.03 | 0.03 | 93 | 1013.7 |
| 20260504201508 | 20 | 218 | 0.0 | 3.2 | 0.00 | 0.03 | 0.03 | 93 | 1013.5 |
| 20260504201001 | 20 | 153 | 0.0 | 3.2 | 0.00 | 0.03 | 0.03 | 93 | 1013.7 |
| 20260504200713 | 20 | 153 | 0.0 | 0.0 | 0.00 | 0.03 | 0.03 | 92 | 1013.6 |
| 20260504195941 | 20 | 153 | 0.0 | 3.2 | 0.00 | 0.03 | 0.03 | 93 | 1013.6 |
| 20260504195442 | 20 | 153 | 0.0 | 3.2 | 0.00 | 0.03 | 0.03 | 93 | 1013.4 |
| 20260504194939 | 20 | 236 | 0.0 | 3.2 | 0.00 | 0.03 | 0.03 | 92 | 1013.4 |
| 20260504194439 | 20 | 236 | 1.6 | 3.2 | 0.00 | 0.03 | 0.03 | 92 | 1013.5 |
| 20260504193912 | 20 | 131 | 0.0 | 3.2 | 0.00 | 0.03 | 0.03 | 92 | 1013.4 |
| 20260504193346 | 20 | 131 | 0.0 | 3.2 | 0.00 | 0.03 | 0.03 | 93 | 1013.4 |
| 20260504192819 | 20 | 131 | 0.0 | 3.2 | 0.00 | 0.03 | 0.03 | 92 | 1013.4 |
| 20260504192549 | 20 | 131 | 1.6 | 3.2 | 0.00 | 0.03 | 0.03 | 92 | 1013.4 |
| 20260504191753 | 20 | 247 | 0.0 | 3.2 | 0.00 | 0.03 | 0.03 | 93 | 1013.6 |
| 20260504191230 | 20 | 247 | 1.6 | 4.8 | 0.00 | 0.03 | 0.03 | 93 | 1013.6 |
| 20260504190730 | 20 | 291 | 1.6 | 4.8 | 0.00 | 0.03 | 0.03 | 93 | 1013.5 |
| 20260504190222 | 20 | 241 | 1.6 | 4.8 | 0.00 | 0.03 | 0.03 | 92 | 1013.6 |
| 20260504185709 | 20 | 241 | 1.6 | 4.8 | 0.03 | 0.03 | 0.03 | 92 | 1013.7 |
| 20260504185206 | 20 | 248 | 0.0 | 3.2 | 0.03 | 0.03 | 0.03 | 92 | 1013.6 |
| 20260504184706 | 20 | 248 | 0.0 | 3.2 | 0.03 | 0.03 | 0.03 | 91 | 1013.7 |
| 20260504184435 | 20 | 248 | 0.0 | 3.2 | 0.03 | 0.03 | 0.03 | 91 | 1013.7 |
| 20260504183637 | 20 | 336 | 0.0 | 1.6 | 0.03 | 0.03 | 0.03 | 91 | 1013.8 |
| 20260504183112 | 20 | 323 | 1.6 | 4.8 | 0.03 | 0.03 | 0.03 | 91 | 1013.9 |
| 20260504182559 | 20 | 323 | 3.2 | 6.4 | 0.03 | 0.03 | 0.03 | 89 | 1014.0 |
| 20260504182328 | 20 | 323 | 3.2 | 6.4 | 0.03 | 0.03 | 0.03 | 88 | 1014.0 |
| 20260504181556 | 20 | 346 | 3.2 | 6.4 | 0.03 | 0.03 | 0.03 | 88 | 1014.0 |
| 20260504181057 | 20 | 13 | 3.2 | 11.3 | 0.03 | 0.03 | 0.03 | 87 | 1014.1 |
| 20260504180533 | 21 | 336 | 3.2 | 11.3 | 0.03 | 0.03 | 0.03 | 86 | 1014.1 |
| 20260504180035 | 21 | 293 | 6.4 | 11.3 | 0.00 | 0.00 | 0.00 | 86 | 1014.2 |
| 20260504175533 | 21 | 302 | 8.0 | 16.1 | 0.00 | 0.00 | 0.00 | 84 | 1014.1 |
| 20260504175032 | 21 | 18 | 4.8 | 16.1 | 0.00 | 0.00 | 0.00 | 83 | 1014.0 |
| 20260504174738 | 21 | 264 | 1.6 | 6.4 | 0.00 | 0.00 | 0.00 | 82 | 1014.0 |
| 20260504173943 | 21 | 305 | 1.6 | 4.8 | 0.00 | 0.00 | 0.00 | 84 | 1014.0 |
| 20260504173443 | 21 | 305 | 1.6 | 4.8 | 0.00 | 0.00 | 0.00 | 83 | 1013.9 |
| 20260504172941 | 21 | 285 | 1.6 | 4.8 | 0.00 | 0.00 | 0.00 | 83 | 1014.0 |
| 20260504172431 | 21 | 285 | 1.6 | 4.8 | 0.00 | 0.00 | 0.00 | 82 | 1013.9 |
| 20260504171929 | 22 | 285 | 1.6 | 4.8 | 0.00 | 0.00 | 0.00 | 81 | 1014.0 |
| 20260504171429 | 22 | 283 | 1.6 | 4.8 | 0.00 | 0.00 | 0.00 | 81 | 1014.1 |
| 20260504171133 | 22 | 292 | 0.0 | 3.2 | 0.00 | 0.00 | 0.00 | 81 | 1014.0 |
| 20260504170352 | 22 | 258 | 1.6 | 4.8 | 0.00 | 0.00 | 0.00 | 81 | 1013.9 |
| 20260504160200 | 22 | 298 | 4.8 | 11.3 | 0.00 | 0.00 | 0.00 | 77 | 1014.6 |
| 20260504151116 | 22 | 314 | 6.4 | 14.5 | 0.00 | 0.00 | 0.00 | 76 | 1015.2 |
| 20260504150616 | 22 | 348 | 6.4 | 14.5 | 0.00 | 0.00 | 0.00 | 75 | 1015.1 |
| 20260504150114 | 22 | 350 | 4.8 | 12.9 | 0.00 | 0.00 | 0.00 | 76 | 1015.2 |
| 20260504140932 | 18 | 120 | 1.6 | 8.0 | 0.00 | 0.00 | 0.00 | 89 | 1015.7 |
| 20260504140636 | 18 | 224 | 3.2 | 8.0 | 0.00 | 0.00 | 0.00 | 92 | 1015.8 |
| 20260504130351 | 13 | 88 | 1.6 | 4.8 | 0.00 | 0.00 | 0.00 | 99 | 1016.3 |
| 20260504110205 | 8 | 290 | 0.0 | 0.0 | 0.00 | 0.00 | 0.00 | 99 | 1015.8 |
| 20260504100453 | 7 | 290 | 0.0 | 0.0 | 0.00 | 0.00 | 0.00 | 98 | 1015.9 |
| 20260504081623 | 7 | 290 | 0.0 | 0.0 | 0.00 | 0.00 | 0.00 | 98 | 1015.7 |
| 20260504081055 | 7 | 290 | 0.0 | 0.0 | 0.00 | 0.00 | 0.00 | 98 | 1015.7 |
| 20260504080536 | 7 | 290 | 0.0 | 0.0 | 0.00 | 0.00 | 0.00 | 98 | 1015.7 |
| 20260504070346 | 7 | 290 | 0.0 | 0.0 | 0.00 | 0.00 | 0.00 | 97 | 1015.8 |
| 20260504060211 | 7 | 290 | 0.0 | 0.0 | 0.00 | 0.00 | 0.00 | 97 | 1016.3 |
| 20260504050507 | 7 | 290 | 0.0 | 0.0 | 0.00 | 0.00 | 0.00 | 97 | 1016.8 |
| 20260504050002 | 7 | 290 | 0.0 | 0.0 | 0.00 | 0.00 | 0.00 | 98 | 1017.0 |
| 20260504045500 | 7 | 290 | 0.0 | 0.0 | 0.00 | 0.00 | 0.00 | 98 | 1017.1 |
| 20260504044959 | 7 | 290 | 0.0 | 0.0 | 0.00 | 0.00 | 0.00 | 98 | 1017.2 |
| 20260504044501 | 7 | 290 | 0.0 | 0.0 | 0.00 | 0.00 | 0.00 | 97 | 1017.1 |
| 20260504043935 | 7 | 290 | 0.0 | 0.0 | 0.00 | 0.00 | 0.00 | 97 | 1017.2 |
| 20260504043429 | 7 | 290 | 0.0 | 0.0 | 0.00 | 0.00 | 0.00 | 97 | 1017.2 |
| 20260504042912 | 7 | 290 | 0.0 | 0.0 | 0.00 | 0.00 | 0.00 | 97 | 1017.3 |
| 20260504042640 | 7 | 290 | 0.0 | 0.0 | 0.00 | 0.00 | 0.00 | 97 | 1017.4 |
| 20260504041909 | 7 | 290 | 0.0 | 0.0 | 0.00 | 0.00 | 0.00 | 97 | 1017.6 |
| 20260504041348 | 7 | 290 | 0.0 | 0.0 | 0.00 | 0.00 | 0.00 | 97 | 1017.6 |
| 20260504040822 | 7 | 290 | 0.0 | 0.0 | 0.00 | 0.00 | 0.00 | 97 | 1017.5 |
| 20260504040302 | 7 | 290 | 0.0 | 0.0 | 0.00 | 0.00 | 0.00 | 97 | 1017.4 |
| 20260504040030 | 7 | 290 | 0.0 | 0.0 | 0.00 | 0.00 | 0.00 | 97 | 1017.5 |
| 20260504035259 | 7 | 290 | 0.0 | 0.0 | 0.00 | 0.00 | 0.00 | 97 | 1017.5 |
| 20260504034757 | 7 | 290 | 0.0 | 0.0 | 0.00 | 0.00 | 0.00 | 97 | 1017.5 |
| 20260504034529 | 7 | 290 | 0.0 | 0.0 | 0.00 | 0.00 | 0.00 | 97 | 1017.8 |
| 20260504033758 | 7 | 290 | 0.0 | 0.0 | 0.00 | 0.00 | 0.00 | 97 | 1017.8 |
| 20260504033228 | 7 | 290 | 0.0 | 0.0 | 0.00 | 0.00 | 0.00 | 96 | 1017.8 |
| 20260504032721 | 7 | 290 | 0.0 | 0.0 | 0.00 | 0.00 | 0.00 | 96 | 1018.1 |
| 20260504032211 | 7 | 290 | 0.0 | 0.0 | 0.00 | 0.00 | 0.00 | 96 | 1018.0 |
| 20260504031707 | 7 | 290 | 0.0 | 0.0 | 0.00 | 0.00 | 0.00 | 97 | 1018.0 |
| 20260504031209 | 7 | 290 | 0.0 | 0.0 | 0.00 | 0.00 | 0.00 | 97 | 1018.1 |
| 20260504030643 | 7 | 290 | 0.0 | 0.0 | 0.00 | 0.00 | 0.00 | 97 | 1018.1 |
| 20260504030141 | 7 | 290 | 0.0 | 1.6 | 0.00 | 0.00 | 0.00 | 97 | 1018.1 |
| 20260504025607 | 7 | 290 | 1.6 | 3.2 | 0.00 | 0.00 | 0.00 | 97 | 1018.2 |
| 20260504025052 | 7 | 290 | 1.6 | 3.2 | 0.00 | 0.00 | 0.00 | 97 | 1018.2 |
| 20260504024550 | 7 | 290 | 0.0 | 3.2 | 0.00 | 0.00 | 0.00 | 96 | 1018.2 |
| 20260504024023 | 7 | 290 | 0.0 | 1.6 | 0.00 | 0.00 | 0.00 | 96 | 1018.2 |
| 20260504023506 | 7 | 290 | 0.0 | 3.2 | 0.00 | 0.00 | 0.00 | 96 | 1018.2 |
| 20260504022942 | 6 | 290 | 0.0 | 3.2 | 0.00 | 0.00 | 0.00 | 95 | 1018.3 |
| 20260504022653 | 7 | 290 | 0.0 | 0.0 | 0.00 | 0.00 | 0.00 | 95 | 1018.4 |
| 20260504021923 | 7 | 290 | 0.0 | 1.6 | 0.00 | 0.00 | 0.00 | 95 | 1018.5 |
| 20260504021419 | 7 | 290 | 0.0 | 1.6 | 0.00 | 0.00 | 0.00 | 95 | 1018.6 |
| 20260504020854 | 7 | 290 | 0.0 | 3.2 | 0.00 | 0.00 | 0.00 | 95 | 1018.5 |
| 20260504020343 | 7 | 290 | 0.0 | 3.2 | 0.00 | 0.00 | 0.00 | 96 | 1018.5 |
| 20260504015831 | 7 | 290 | 0.0 | 0.0 | 0.00 | 0.00 | 0.00 | 96 | 1018.7 |
| 20260504015340 | 7 | 290 | 0.0 | 0.0 | 0.00 | 0.00 | 0.00 | 96 | 1018.7 |
| 20260504014825 | 7 | 290 | 0.0 | 0.0 | 0.00 | 0.00 | 0.00 | 95 | 1018.6 |
| 20260504014257 | 7 | 290 | 0.0 | 0.0 | 0.00 | 0.00 | 0.00 | 95 | 1018.7 |
| 20260504013755 | 7 | 290 | 0.0 | 1.6 | 0.00 | 0.00 | 0.00 | 95 | 1018.7 |
| 20260504013526 | 7 | 290 | 1.6 | 3.2 | 0.00 | 0.00 | 0.00 | 95 | 1018.8 |
| 20260504012754 | 7 | 290 | 1.6 | 3.2 | 0.00 | 0.00 | 0.00 | 95 | 1018.9 |
| 20260504012257 | 7 | 290 | 0.0 | 1.6 | 0.00 | 0.00 | 0.00 | 95 | 1018.8 |
| 20260504011728 | 7 | 290 | 0.0 | 0.0 | 0.00 | 0.00 | 0.00 | 95 | 1018.9 |
| 20260504011212 | 7 | 290 | 0.0 | 1.6 | 0.00 | 0.00 | 0.00 | 95 | 1018.9 |
| 20260504010709 | 7 | 290 | 0.0 | 1.6 | 0.00 | 0.00 | 0.00 | 95 | 1018.9 |
| 20260504010206 | 7 | 290 | 0.0 | 1.6 | 0.00 | 0.00 | 0.00 | 95 | 1018.9 |
| 20260504005657 | 7 | 290 | 0.0 | 1.6 | 0.00 | 0.00 | 0.00 | 95 | 1019.0 |
| 20260504005423 | 7 | 290 | 0.0 | 1.6 | 0.00 | 0.00 | 0.00 | 95 | 1019.1 |
| 20260504004650 | 7 | 290 | 0.0 | 1.6 | 0.00 | 0.00 | 0.00 | 95 | 1019.1 |
| 20260504004122 | 8 | 290 | 0.0 | 3.2 | 0.00 | 0.00 | 0.00 | 94 | 1019.1 |
| 20260504003556 | 8 | 290 | 0.0 | 3.2 | 0.00 | 0.00 | 0.00 | 94 | 1019.0 |
| 20260504003032 | 8 | 290 | 0.0 | 3.2 | 0.00 | 0.00 | 0.00 | 94 | 1018.9 |
| 20260504003026 | 8 | 290 | 0.0 | 3.2 | 0.00 | 0.00 | 0.00 | 94 | 1018.8 |
| 20260504002249 | 8 | 290 | 0.0 | 3.2 | 0.00 | 0.00 | 0.00 | 94 | 1018.7 |
| 20260504001453 | 8 | 290 | 0.0 | 1.6 | 0.00 | 0.00 | 0.00 | 94 | 1018.5 |
| 20260504000955 | 8 | 290 | 0.0 | 1.6 | 0.00 | 0.00 | 0.00 | 93 | 1018.5 |
| 20260504000427 | 8 | 290 | 0.0 | 1.6 | 0.00 | 0.00 | 0.00 | 93 | 1018.5 |
| 20260503235901 | 8 | 290 | 0.0 | 1.6 | 0.00 | 0.00 | 0.00 | 93 | 1018.6 |
| 20260503235337 | 8 | 290 | 0.0 | 1.6 | 0.00 | 0.00 | 0.00 | 93 | 1018.7 |
| 20260503235101 | 8 | 290 | 0.0 | 1.6 | 0.00 | 0.00 | 0.00 | 93 | 1018.8 |
| 20260503234308 | 8 | 290 | 1.6 | 3.2 | 0.00 | 0.00 | 0.00 | 93 | 1018.9 |
| 20260503234250 | 9 | 290 | 1.6 | 3.2 | 0.00 | 0.00 | 0.00 | 94 | 1018.8 |
| 20260503233245 | 9 | 290 | 0.0 | 3.2 | 0.00 | 0.00 | 0.00 | 93 | 1018.9 |
| 20260503232744 | 9 | 290 | 0.0 | 3.2 | 0.00 | 0.00 | 0.00 | 93 | 1018.8 |
| 20260503232244 | 9 | 290 | 0.0 | 3.2 | 0.00 | 0.00 | 0.00 | 93 | 1018.7 |
| 20260503231744 | 9 | 290 | 0.0 | 0.0 | 0.00 | 0.00 | 0.00 | 92 | 1018.8 |
| 20260503231245 | 9 | 290 | 0.0 | 0.0 | 0.00 | 0.00 | 0.00 | 92 | 1018.9 |
| 20260503230949 | 10 | 290 | 0.0 | 0.0 | 0.00 | 0.00 | 0.00 | 92 | 1018.8 |
| 20260503230214 | 10 | 290 | 0.0 | 3.2 | 0.00 | 0.00 | 0.00 | 92 | 1018.9 |
| 20260503225652 | 10 | 290 | 1.6 | 3.2 | 0.00 | 0.00 | 0.00 | 92 | 1018.9 |
| 20260503225126 | 10 | 282 | 0.0 | 3.2 | 0.00 | 0.00 | 0.00 | 91 | 1019.0 |
| 20260503224604 | 10 | 282 | 0.0 | 0.0 | 0.00 | 0.00 | 0.00 | 90 | 1019.0 |
| 20260503224035 | 10 | 282 | 0.0 | 0.0 | 0.00 | 0.00 | 0.00 | 91 | 1018.9 |
| 20260503223532 | 10 | 282 | 0.0 | 0.0 | 0.00 | 0.00 | 0.00 | 91 | 1018.9 |
| 20260503223031 | 10 | 282 | 0.0 | 0.0 | 0.00 | 0.00 | 0.00 | 91 | 1018.8 |
| 20260503222503 | 10 | 282 | 0.0 | 0.0 | 0.00 | 0.00 | 0.00 | 90 | 1018.9 |